When you browse on this site, cookies collect data to enhance your experience and personalize the content and advertising you see.
Visit our Privacy Policy to learn more. By continuing to use the site, you agree to this use of cookies and data.
  • In Latvia
  • List of Countries
  • For 7 days
  • Water Temperature
  • Satellite Maps
  • Weather Map
  • Weather Widgets
  • user-avatar
    Login

    Hourly Weather Dagestanskaya

    Today, 21 February, Thursday

    Time Temperature Precipitation Wind Pressure Humidity
    00:00 +3°C° 0 mm 1 mps 736 mmHg 62%
    01:00 +3°C° 0 mm 1 mps 736 mmHg 61%
    02:00 +3°C° 0 mm 1 mps 736 mmHg 59%
    03:00 +3°C° 0 mm 1 mps 736 mmHg 57%
    04:00 +3°C° 0 mm 1 mps 735 mmHg 56%
    05:00 +3°C° 0 mm 1 mps 735 mmHg 55%
    06:00 +3°C° 0 mm 1 mps 735 mmHg 55%
    07:00 +5°C° 0 mm 1 mps 735 mmHg 51%
    08:00 +6°C° 0 mm 1 mps 735 mmHg 48%
    09:00 +7°C° 0 mm 1 mps 735 mmHg 44%
    10:00 +8°C° 0 mm 2 mps 735 mmHg 40%
    11:00 +10°C° 0 mm 3 mps 735 mmHg 37%
    12:00 +12°C° 0 mm 4 mps 735 mmHg 33%
    13:00 +10°C° 0 mm 5 mps 735 mmHg 35%
    14:00 +10°C° 0 mm 5 mps 735 mmHg 37%
    15:00 +10°C° 0 mm 6 mps 735 mmHg 39%
    16:00 +9°C° 0 mm 5 mps 735 mmHg 45%
    17:00 +7°C° 0 mm 4 mps 735 mmHg 51%
    18:00 +6°C° 0 mm 4 mps 735 mmHg 58%
    19:00 +5°C° 0.1 mm 4 mps 735 mmHg 62%
    20:00 +5°C° 0.1 mm 4 mps 735 mmHg 67%
    21:00 +5°C° 0.1 mm 4 mps 736 mmHg 72%
    22:00 +5°C° 0.1 mm 4 mps 736 mmHg 73%
    23:00 +4°C° 0.1 mm 4 mps 736 mmHg 74%

    Tomorrow, 22 February, Friday

    Time Temperature Precipitation Wind Pressure Humidity
    00:00 +4°C° 0.1 mm 4 mps 736 mmHg 75%
    01:00 +4°C° 0.1 mm 4 mps 736 mmHg 76%
    02:00 +4°C° 0.1 mm 4 mps 736 mmHg 78%
    03:00 +3°C° 0.1 mm 4 mps 736 mmHg 79%
    04:00 +3°C° 0.1 mm 4 mps 736 mmHg 78%
    05:00 +3°C° 0.1 mm 4 mps 736 mmHg 78%
    06:00 +1°C° 0.1 mm 4 mps 736 mmHg 77%
    07:00 +3°C° 0 mm 4 mps 737 mmHg 74%
    08:00 +3°C° 0 mm 4 mps 737 mmHg 71%
    09:00 +3°C° 0 mm 4 mps 737 mmHg 67%
    10:00 +4°C° 0 mm 4 mps 737 mmHg 62%
    11:00 +5°C° 0 mm 4 mps 737 mmHg 57%
    12:00 +6°C° 0 mm 5 mps 737 mmHg 52%
    13:00 +7°C° 0 mm 5 mps 736 mmHg 51%
    14:00 +7°C° 0 mm 5 mps 736 mmHg 50%
    15:00 +7°C° 0 mm 5 mps 735 mmHg 48%
    16:00 +7°C° 0 mm 4 mps 735 mmHg 52%
    17:00 +7°C° 0 mm 3 mps 735 mmHg 56%
    18:00 +6°C° 0 mm 2 mps 735 mmHg 60%
    19:00 +5°C° 0.1 mm 2 mps 735 mmHg 62%
    20:00 +5°C° 0.1 mm 2 mps 735 mmHg 64%
    21:00 +6°C° 0.1 mm 1 mps 735 mmHg 66%
    22:00 +6°C° 0 mm 1 mps 734 mmHg 67%
    23:00 +5°C° 0 mm 1 mps 734 mmHg 67%

    Day after tomorrow, 23 February, Saturday

    Time Temperature Precipitation Wind Pressure Humidity
    00:00 +5°C° 0 mm 1 mps 734 mmHg 67%
    01:00 +5°C° 0 mm 1 mps 733 mmHg 65%
    02:00 +5°C° 0 mm 1 mps 733 mmHg 63%
    03:00 +5°C° 0 mm 1 mps 733 mmHg 60%
    04:00 +5°C° 0 mm 1 mps 732 mmHg 61%
    05:00 +5°C° 0 mm 1 mps 732 mmHg 62%
    06:00 +5°C° 0 mm 1 mps 732 mmHg 62%
    07:00 +6°C° 0.3 mm 1 mps 732 mmHg 64%
    08:00 +6°C° 0.3 mm 1 mps 733 mmHg 66%
    09:00 +7°C° 0.3 mm 1 mps 733 mmHg 68%
    10:00 +8°C° 0.4 mm 1 mps 733 mmHg 66%
    11:00 +8°C° 0.4 mm 1 mps 733 mmHg 64%
    12:00 +9°C° 0.4 mm 1 mps 734 mmHg 61%
    13:00 +9°C° 0.4 mm 1 mps 734 mmHg 62%
    14:00 +9°C° 0.4 mm 1 mps 734 mmHg 63%
    15:00 +8°C° 0.4 mm 0 mps 734 mmHg 64%
    16:00 +8°C° 0 mm 0 mps 735 mmHg 68%
    17:00 +7°C° 0 mm 0 mps 735 mmHg 72%
    18:00 +6°C° 0 mm 0 mps 735 mmHg 76%
    19:00 +7°C° 0.1 mm 1 mps 736 mmHg 80%
    20:00 +6°C° 0.1 mm 1 mps 736 mmHg 83%
    21:00 +6°C° 0.1 mm 1 mps 737 mmHg 87%
    22:00 +5°C° 0.2 mm 1 mps 737 mmHg 89%
    23:00 +4°C° 0.2 mm 1 mps 737 mmHg 91%

    24 February, Sunday

    Time Temperature Precipitation Wind Pressure Humidity
    00:00 +4°C° 0.2 mm 1 mps 737 mmHg 93%
    01:00 +3°C° 0.3 mm 1 mps 737 mmHg 93%
    02:00 +3°C° 0.3 mm 1 mps 738 mmHg 93%
    03:00 +3°C° 0.3 mm 1 mps 738 mmHg 93%
    04:00 +2°C° 0.4 mm 1 mps 738 mmHg 93%
    05:00 +2°C° 0.4 mm 1 mps 738 mmHg 93%
    06:00 +1°C° 0.4 mm 1 mps 738 mmHg 94%
    07:00 +1°C° 0.1 mm 1 mps 738 mmHg 93%
    08:00 +1°C° 0.1 mm 1 mps 739 mmHg 91%
    09:00 +2°C° 0.1 mm 1 mps 739 mmHg 90%
    10:00 +2°C° 0.2 mm 1 mps 739 mmHg 88%
    11:00 +3°C° 0.2 mm 1 mps 740 mmHg 86%
    12:00 +3°C° 0.2 mm 1 mps 740 mmHg 84%
    13:00 +3°C° 0.3 mm 1 mps 740 mmHg 86%
    14:00 +2°C° 0.3 mm 1 mps 740 mmHg 87%
    15:00 +2°C° 0.3 mm 1 mps 740 mmHg 88%
    16:00 +2°C° 0.3 mm 1 mps 740 mmHg 90%
    17:00 +1°C° 0.3 mm 1 mps 740 mmHg 92%
    18:00 0°C° 0.3 mm 1 mps 740 mmHg 94%
    19:00 0°C° 0.6 mm 1 mps 740 mmHg 94%
    20:00 0°C° 0.6 mm 1 mps 740 mmHg 94%
    21:00 0°C° 0.6 mm 1 mps 740 mmHg 95%
    22:00 -1°C° 0.6 mm 1 mps 740 mmHg 95%
    23:00 -1°C° 0.6 mm 1 mps 740 mmHg 95%

    25 February, Monday

    Time Temperature Precipitation Wind Pressure Humidity
    00:00 -1°C° 0.6 mm 1 mps 740 mmHg 95%
    01:00 -1°C° 0.4 mm 1 mps 740 mmHg 95%
    02:00 -1°C° 0.4 mm 1 mps 740 mmHg 95%
    03:00 -1°C° 0.4 mm 1 mps 740 mmHg 95%
    04:00 -1°C° 0.1 mm 1 mps 740 mmHg 95%
    05:00 -1°C° 0.1 mm 1 mps 739 mmHg 95%
    06:00 -2°C° 0.1 mm 1 mps 739 mmHg 95%
    07:00 -1°C° 0.1 mm 1 mps 739 mmHg 93%
    08:00 -1°C° 0.1 mm 1 mps 739 mmHg 91%
    09:00 -1°C° 0.1 mm 1 mps 739 mmHg 90%
    10:00 0°C° 0.1 mm 1 mps 738 mmHg 88%
    11:00 +1°C° 0.1 mm 1 mps 738 mmHg 86%
    12:00 +2°C° 0.1 mm 1 mps 737 mmHg 84%
    13:00 +2°C° 0.1 mm 1 mps 736 mmHg 85%
    14:00 +2°C° 0.1 mm 1 mps 736 mmHg 86%
    15:00 +1°C° 0.1 mm 2 mps 735 mmHg 88%
    16:00 +1°C° 0.1 mm 2 mps 734 mmHg 89%
    17:00 +1°C° 0.1 mm 1 mps 734 mmHg 91%
    18:00 +1°C° 0.1 mm 1 mps 733 mmHg 93%
    19:00 0°C° 0.1 mm 1 mps 733 mmHg 94%
    20:00 0°C° 0.1 mm 1 mps 733 mmHg 95%
    21:00 0°C° 0.1 mm 1 mps 732 mmHg 96%
    22:00 0°C° 0.1 mm 1 mps 732 mmHg 96%
    23:00 0°C° 0.1 mm 1 mps 732 mmHg 96%

    26 February, Tuesday

    Time Temperature Precipitation Wind Pressure Humidity
    00:00 0°C° 0.1 mm 1 mps 731 mmHg 95%
    01:00 0°C° 0.1 mm 1 mps 731 mmHg 95%
    02:00 0°C° 0.1 mm 1 mps 730 mmHg 95%
    03:00 0°C° 0.1 mm 1 mps 730 mmHg 95%
    04:00 0°C° 0.2 mm 1 mps 730 mmHg 95%
    05:00 0°C° 0.2 mm 1 mps 730 mmHg 95%
    06:00 0°C° 0.2 mm 1 mps 729 mmHg 95%
    07:00 -1°C° 0.4 mm 2 mps 729 mmHg 95%
    08:00 -1°C° 0.4 mm 2 mps 729 mmHg 94%
    09:00 -1°C° 0.4 mm 2 mps 729 mmHg 94%
    10:00 -1°C° 0.5 mm 2 mps 729 mmHg 93%
    11:00 +1°C° 0.5 mm 2 mps 729 mmHg 93%
    12:00 +1°C° 0.5 mm 2 mps 729 mmHg 92%
    13:00 +1°C° 0.5 mm 2 mps 729 mmHg 93%
    14:00 +1°C° 0.5 mm 2 mps 729 mmHg 93%
    15:00 +2°C° 0.5 mm 1 mps 729 mmHg 94%
    16:00 +2°C° 0.3 mm 1 mps 729 mmHg 95%
    17:00 +2°C° 0.3 mm 1 mps 729 mmHg 96%
    18:00 +1°C° 0.3 mm 1 mps 729 mmHg 97%
    19:00 +1°C° 0.2 mm 1 mps 730 mmHg 97%
    20:00 +1°C° 0.2 mm 1 mps 730 mmHg 97%
    21:00 0°C° 0.2 mm 1 mps 730 mmHg 97%
    22:00 -2°C° 0.1 mm 2 mps 731 mmHg 97%
    23:00 -2°C° 0.1 mm 2 mps 731 mmHg 97%
    Show more